DW7857 Weather Reports


time (UTC)temp
F
wind
direction
speed
knots
gust
knots
rain 1hr
in
rain 24hr
in
rain mn
in
humidity
%
barometer
mb
20260508142703 66 165 4.3 7.0 0.00 0.00 0.00 46 1013.9
20260508141803 65 182 6.1 9.6 0.00 0.00 0.00 46 1014.1
20260508140903 65 178 7.0 9.6 0.00 0.00 0.00 46 1014.0
20260508140003 66 183 6.1 8.7 0.00 0.00 0.00 46 1014.1
20260508135403 66 186 6.1 8.7 0.00 0.00 0.00 46 1014.0
20260508134503 67 174 5.2 7.8 0.00 0.00 0.00 49 1013.9
20260508133603 66 146 6.1 7.8 0.00 0.00 0.00 45 1014.1
20260508132703 65 171 5.2 7.0 0.00 0.00 0.00 50 1013.9
20260508131803 65 168 5.2 10.4 0.00 0.00 0.00 47 1013.9
20260508130903 65 203 6.1 7.8 0.00 0.00 0.00 50 1013.9
20260508130003 65 217 6.1 7.8 0.00 0.00 0.00 47 1013.7
20260508125403 65 149 5.2 7.8 0.00 0.00 0.00 49 1013.7
20260508124503 65 170 5.2 7.0 0.00 0.00 0.00 50 1014.1
20260508123604 64 209 6.1 8.7 0.00 0.00 0.00 49 1013.9
20260508122703 64 250 7.8 10.4 0.00 0.00 0.00 50 1013.8
20260508121803 65 250 6.1 8.7 0.00 0.00 0.00 49 1013.7
20260508120903 65 187 4.3 8.7 0.00 0.00 0.00 50 1013.7
20260508120003 65 165 4.3 7.0 0.00 0.00 0.00 50 1013.8
20260508115403 64 183 5.2 9.6 0.00 0.00 0.00 51 1013.7
20260508114503 64 207 5.2 9.6 0.00 0.00 0.00 52 1013.7
20260508113603 63 242 6.1 9.6 0.00 0.00 0.00 55 1013.7
20260508112703 64 129 5.2 7.0 0.00 0.00 0.00 51 1013.8
20260508111803 64 183 5.2 7.0 0.00 0.00 0.00 52 1014.0
20260508110903 63 194 5.2 7.0 0.00 0.00 0.00 56 1013.8
20260508110004 63 192 6.1 9.6 0.00 0.00 0.00 58 1013.6
20260508105614 63 194 6.1 9.6 0.00 0.00 0.00 57 1013.8
20260508104503 63 168 5.2 7.0 0.00 0.00 0.00 55 1013.8
20260508103813 62 181 5.2 7.0 0.00 0.00 0.00 58 1013.8
20260508102703 62 188 5.2 7.0 0.00 0.00 0.00 57 1013.5
20260508101803 63 140 3.5 7.0 0.00 0.00 0.00 58 1013.6
20260508100903 62 173 4.3 7.0 0.00 0.00 0.00 60 1013.6
20260508100003 61 104 4.3 7.0 0.00 0.00 0.00 61 1013.7
20260508095403 61 178 4.3 7.0 0.00 0.00 0.00 62 1013.6
20260508094503 61 138 4.3 7.0 0.00 0.00 0.00 61 1013.5
20260508093604 61 181 3.5 5.2 0.00 0.00 0.00 63 1013.2
20260508092914 61 139 3.5 5.2 0.00 0.00 0.00 66 1013.3
20260508091803 61 106 3.5 5.2 0.00 0.00 0.00 68 1013.5
20260508090903 60 61 3.5 7.0 0.00 0.00 0.00 72 1013.4
20260508090003 58 121 3.5 5.2 0.00 0.00 0.00 70 1013.6
20260508085403 59 102 2.6 4.3 0.00 0.00 0.00 69 1013.6
20260508084713 60 60 1.7 4.3 0.00 0.00 0.00 71 1013.8
20260508083603 58 87 2.6 5.2 0.00 0.00 0.00 73 1013.5
20260508082913 58 76 1.7 3.5 0.00 0.00 0.00 76 1013.5
20260508081803 56 166 1.7 3.5 0.00 0.00 0.00 76 1013.4
20260508080903 56 83 1.7 2.6 0.00 0.00 0.00 76 1013.7
20260508080003 55 141 1.7 2.6 0.00 0.00 0.00 75 1013.6
20260508075404 56 137 1.7 3.5 0.00 0.00 0.00 75 1013.6
20260508074503 56 289 0.9 3.5 0.00 0.00 0.00 75 1013.4
20260508073603 56 13 0.9 1.7 0.00 0.00 0.00 75 1013.4
20260508072703 57 37 1.7 2.6 0.00 0.00 0.00 76 1013.2
20260508072012 57 41 1.7 2.6 0.00 0.00 0.00 79 1013.2
20260508071114 55 332 1.7 2.6 0.00 0.00 0.00 77 1013.4
20260508070003 54 65 0.9 1.7 0.00 0.00 0.00 75 1013.3
20260508065403 55 65 1.7 1.7 0.00 0.00 0.00 74 1013.1
20260508064503 56 80 1.7 2.6 0.00 0.00 0.00 73 1013.2
20260508063603 57 328 1.7 3.5 0.00 0.00 0.00 76 1013.1
20260508062703 56 318 1.7 2.6 0.00 0.00 0.00 80 1012.9
20260508061803 56 30 1.7 3.5 0.00 0.00 0.00 85 1012.9
20260508060903 54 5 1.7 2.6 0.00 0.00 0.00 91 1013.1
20260508060213 53 324 0.9 1.7 0.00 0.00 0.00 91 1013.1
20260508055403 52 356 0.9 1.7 0.00 0.00 0.00 91 1013.2
20260508054503 51 360 0.9 1.7 0.00 0.00 0.00 90 1012.9
20260508053603 50 357 0.9 1.7 0.00 0.00 0.00 90 1012.8
20260508052703 50 315 0.9 1.7 0.00 0.00 0.00 90 1012.9
20260508051803 50 289 0.0 1.7 0.00 0.00 0.00 90 1012.9
20260508050903 49 349 0.9 1.7 0.00 0.00 0.00 89 1012.9
20260508050003 49 28 0.9 1.7 0.00 0.00 0.00 88 1012.9
20260508045614 49 14 0.9 1.7 0.00 0.00 0.00 88 1012.8
20260508044503 49 360 0.9 1.7 0.00 0.00 0.00 87 1012.7
20260508043603 50 321 0.9 1.7 0.00 0.00 0.00 87 1012.7
20260508042703 50 315 0.0 0.9 0.00 0.00 0.00 86 1012.9
20260508041803 50 315 0.0 1.7 0.00 0.00 0.00 86 1013.0
20260508040903 50 315 0.9 1.7 0.00 0.00 0.00 86 1012.7
20260508040214 50 315 0.0 0.9 0.00 0.00 0.00 86 1013.0
20260508035403 50 315 0.0 0.9 0.00 0.00 0.00 86 1013.0
20260508034713 50 315 0.0 0.9 0.00 0.00 0.00 86 1012.9
20260508033814 50 315 0.0 1.7 0.00 0.00 0.00 86 1013.1
20260508032703 50 315 0.0 1.7 0.00 0.00 0.00 86 1012.9
20260508031803 50 315 0.0 0.9 0.00 0.00 0.00 86 1013.1
20260508031114 50 298 0.9 1.7 0.00 0.00 0.00 86 1013.1
20260508030214 50 211 0.9 1.7 0.00 0.00 0.00 86 1013.2
20260508025403 50 157 0.9 1.7 0.00 0.00 0.00 86 1013.1
20260508024503 50 162 0.0 1.7 0.00 0.00 0.00 86 1013.0
20260508023603 50 112 0.9 1.7 0.00 0.00 0.00 85 1013.3
20260508022703 51 321 0.0 1.7 0.00 0.00 0.00 84 1013.3
20260508021803 51 279 0.9 1.7 0.00 0.00 0.00 84 1013.2
20260508020903 51 174 0.9 1.7 0.00 0.00 0.00 84 1013.2
20260508020004 51 176 0.9 2.6 0.00 0.00 0.00 83 1013.1
20260508015613 51 156 0.9 2.6 0.00 0.00 0.00 82 1013.2
20260508014504 51 97 0.9 1.7 0.00 0.00 0.00 82 1013.1
20260508013603 51 190 0.9 1.7 0.00 0.00 0.00 82 1013.4
20260508012703 51 222 0.9 1.7 0.00 0.00 0.00 82 1013.7
20260508011803 51 109 1.7 1.7 0.00 0.00 0.00 81 1013.4
20260508010903 51 72 0.9 1.7 0.00 0.00 0.00 81 1013.5
20260508010003 51 204 0.9 1.7 0.00 0.00 0.00 80 1013.6
20260508005403 51 334 0.9 1.7 0.00 0.00 0.00 80 1013.7
20260508004503 51 235 0.9 1.7 0.00 0.00 0.00 80 1013.6
20260508003603 51 218 0.9 1.7 0.00 0.00 0.00 79 1013.5
20260508002914 51 212 0.9 1.7 0.00 0.00 0.00 78 1013.8
20260508001803 52 326 0.9 1.7 0.00 0.00 0.00 76 1013.7
20260508000903 52 33 0.9 1.7 0.00 0.00 0.00 75 1013.4
20260508000003 52 176 1.7 3.5 0.00 0.00 0.00 74 1013.5
20260507235403 52 186 1.7 3.5 0.00 0.00 0.00 73 1013.7
20260507234503 52 181 1.7 3.5 0.00 0.00 0.00 72 1013.9
20260507233603 52 188 1.7 3.5 0.00 0.00 0.00 71 1013.8
20260507232703 52 124 1.7 3.5 0.00 0.00 0.00 70 1013.8
20260507231803 52 211 1.7 2.6 0.00 0.00 0.00 68 1013.8
20260507230903 52 172 0.9 1.7 0.00 0.00 0.00 67 1014.1
20260507230004 52 243 0.9 1.7 0.00 0.00 0.00 65 1014.0
20260507225403 52 246 0.9 1.7 0.00 0.00 0.00 65 1014.1
20260507224504 52 150 0.9 2.6 0.00 0.00 0.00 64 1013.8
20260507223603 52 156 0.9 1.7 0.00 0.00 0.00 62 1013.8
20260507222703 52 220 0.0 1.7 0.00 0.00 0.00 61 1013.9
20260507222013 53 180 0.9 1.7 0.00 0.00 0.00 61 1013.9
20260507220903 53 182 1.7 1.7 0.00 0.00 0.00 60 1013.9
20260507220003 53 308 0.9 1.7 0.00 0.00 0.00 60 1013.9
20260507215613 53 297 0.0 1.7 0.00 0.00 0.00 60 1013.9
20260507214712 52 225 0.0 0.9 0.00 0.00 0.00 60 1014.0
20260507213603 53 225 0.0 0.9 0.00 0.00 0.00 60 1013.9
20260507212703 53 198 0.0 0.9 0.00 0.00 0.00 58 1014.2
20260507211803 53 201 0.9 1.7 0.00 0.00 0.00 57 1014.0
20260507211114 53 209 0.9 1.7 0.00 0.00 0.00 57 1014.0
20260507210004 53 185 0.9 1.7 0.00 0.00 0.00 58 1013.8
20260507205613 53 269 0.9 1.7 0.00 0.00 0.00 59 1014.0
20260507204712 53 212 0.9 1.7 0.00 0.00 0.00 61 1013.9
20260507203814 53 190 0.9 1.7 0.00 0.00 0.00 62 1014.0
20260507202703 53 90 0.9 1.7 0.00 0.00 0.00 64 1013.6
20260507201803 53 90 0.0 1.7 0.00 0.00 0.00 65 1013.6
20260507200903 53 90 0.0 0.9 0.00 0.00 0.00 66 1013.7
20260507200003 54 165 0.9 1.7 0.00 0.00 0.00 67 1013.4
20260507195403 54 164 0.0 1.7 0.00 0.00 0.00 67 1013.3
20260507194503 54 172 0.9 1.7 0.00 0.00 0.00 67 1013.4
20260507193603 54 103 0.9 1.7 0.00 0.00 0.00 66 1013.4
20260507192703 54 160 0.9 1.7 0.00 0.00 0.00 65 1013.1
20260507191803 54 166 0.9 1.7 0.00 0.00 0.00 61 1013.5
20260507190903 55 154 0.9 1.7 0.00 0.00 0.00 60 1012.9
20260507190004 55 166 0.9 1.7 0.00 0.00 0.00 58 1013.0
20260507185403 55 144 0.9 2.6 0.00 0.00 0.00 56 1012.9
20260507184503 55 199 1.7 3.5 0.00 0.00 0.00 54 1013.0
20260507183603 56 191 1.7 5.2 0.00 0.00 0.00 52 1013.0
20260507182703 56 219 2.6 3.5 0.00 0.00 0.00 51 1013.1
20260507181803 56 193 2.6 3.5 0.00 0.00 0.00 50 1013.2
20260507180903 56 197 2.6 3.5 0.00 0.00 0.00 50 1012.9
20260507180004 56 193 3.5 4.3 0.00 0.00 0.00 50 1013.1
20260507175403 57 218 4.3 5.2 0.00 0.00 0.00 50 1013.2
20260507174503 57 241 2.6 3.5 0.00 0.00 0.00 51 1013.2
20260507173603 57 182 2.6 3.5 0.00 0.00 0.00 52 1013.0
20260507172703 57 158 3.5 4.3 0.00 0.00 0.00 52 1012.9
20260507171803 58 197 3.5 4.3 0.00 0.00 0.00 51 1012.9
20260507171112 58 138 2.6 3.5 0.00 0.00 0.00 51 1013.2
20260507170003 58 137 3.5 5.2 0.00 0.00 0.00 52 1013.2
20260507165403 59 111 3.5 3.5 0.00 0.00 0.00 52 1013.0
20260507164503 59 187 4.3 6.1 0.00 0.00 0.00 51 1013.2
20260507163603 60 182 3.5 6.1 0.00 0.00 0.00 50 1013.2
20260507162703 60 159 4.3 7.0 0.00 0.00 0.00 47 1013.1
20260507161803 60 194 4.3 7.0 0.00 0.00 0.00 48 1013.2
20260507160903 60 187 6.1 8.7 0.00 0.00 0.00 46 1013.2
20260507160003 61 226 5.2 7.0 0.00 0.00 0.00 46 1013.2
20260507155403 61 205 5.2 9.6 0.00 0.00 0.00 46 1013.2
20260507154503 62 178 4.3 9.6 0.00 0.00 0.00 45 1013.3
20260507153603 61 203 4.3 9.6 0.00 0.00 0.00 44 1013.4
20260507152703 61 186 5.2 7.0 0.00 0.00 0.00 46 1013.2
20260507152014 61 163 5.2 8.7 0.00 0.00 0.00 44 1013.3
20260507151114 62 117 4.3 7.0 0.00 0.00 0.00 47 1013.3
20260507150003 62 186 4.3 7.0 0.00 0.00 0.00 46 1013.4
20260507145403 61 169 5.2 8.7 0.00 0.00 0.00 45 1013.5
20260507144503 61 196 4.3 7.0 0.00 0.00 0.00 43 1013.6
20260507143603 61 188 6.1 10.4 0.00 0.00 0.00 42 1013.5